Вернуться в каталог

KUIPER-00646

АктивенСвязьLEO
NORAD 69789·PAYLOAD·🇺🇸 United States

Запущен Jul 2, 2026 с Cape Canaveral Space Force Station

Loading…

Ближайшие Пролёты (ближайшие 24 часа)

TLE

СвежийSource: CelesTrak SupGP

Эпоха: Sep 14, 2026, 20:27 UTC

1 69789C 26151AC  26257.85276620 -.00407780  00000+0 -50604-1 0  2572
2 69789  51.8982 249.2852 0003615  70.4624 159.2465 14.82567367    16

Отслеживайте KUIPER-00646 в реальном времени с AllMySat

Download on the App Store